QPF
0.00 0.00 0.00 0.00 0.00 0.00 0.00 0.00 0.01 0.01 0.01 0.01 0.01 0.01 0.01 0.01 0.01 0.02 0.01 0.01 0.02 0.02 0.03 0.03 0.04 0.04 0.04 0.03 0.03 0.04 0.05 0.07 0.07 0.06 0.06 0.09 0.11 0.10 0.10 0.12 0.14 0.16 0.13
0.00 0.00 0.00 0.00 0.00 0.00 0.00 0.01 0.01 0.01 0.01 0.01 0.01 0.01 0.01 0.01 0.01 0.02 0.01 0.01 0.02 0.02 0.02 0.03 0.03 0.04 0.05 0.04 0.04 0.04 0.04 0.05 0.07 0.07 0.06 0.07 0.11 0.11 0.10 0.11 0.12 0.13 0.14
0.00 0.00 0.00 0.00 0.00 0.01 0.01 0.01 0.01 0.01 0.01 0.01 0.01 0.01 0.01 0.01 0.01 0.02 0.02 0.02 0.02 0.02 0.02 0.02 0.02 0.04 0.05 0.06 0.06 0.05 0.05 0.04 0.06 0.08 0.08 0.07 0.11 0.10 0.10 0.10 0.11 0.14 0.14
0.00 0.00 0.00 0.00 0.00 0.00 0.01 0.01 0.01 0.01 0.01 0.01 0.01 0.01 0.01 0.01 0.02 0.02 0.02 0.03 0.03 0.02 0.03 0.03 0.02 0.03 0.04 0.06 0.06 0.06 0.06 0.05 0.06 0.06 0.07 0.09 0.12 0.13 0.10 0.12 0.12 0.13 0.14
0.00 0.00 0.00 0.00 0.00 0.01 0.01 0.01 0.01 0.01 0.01 0.01 0.01 0.01 0.01 0.01 0.01 0.01 0.02 0.02 0.02 0.02 0.03 0.03 0.03 0.02 0.03 0.04 0.03 0.05 0.06 0.07 0.07 0.06 0.06 0.06 0.09 0.11 0.09 0.10 0.13 0.15 0.15
0.00 0.00 0.00 0.00 0.00 0.01 0.01 0.00 0.01 0.01 0.01 0.01 0.01 0.01 0.01 0.01 0.00 0.00 0.00 0.00 0.01 0.01 0.01 0.02 0.03 0.02 0.01 0.01 0.01 0.01 0.02 0.04 0.05 0.07 0.07 0.06 0.07 0.07 0.07 0.10 0.12 0.14 0.16
0.00 0.00 0.00 0.00 0.00 0.00 0.00 0.00 0.01 0.01 0.01 0.01 0.02 0.02 0.03 0.03 0.00 0.00 0.00 0.00 0.00 0.01 0.01 0.02 0.02 0.02 0.03 0.03 0.03 0.01 0.01 0.00 0.01 0.03 0.05 0.06 0.07 0.08 0.08 0.08 0.11 0.13 0.14
0.00 0.00 0.00 0.00 0.00 0.00 0.00 0.01 0.01 0.02 0.02 0.02 0.03 0.03 0.04 0.03 0.01 0.00 0.00 0.00 0.01 0.02 0.03 0.03 0.04 0.04 0.04 0.05 0.06 0.05 0.04 0.02 0.01 0.00 0.01 0.03 0.05 0.08 0.09 0.09 0.11 0.12 0.15
0.00 0.00 0.00 0.00 0.00 0.00 0.01 0.01 0.02 0.02 0.02 0.02 0.03 0.04 0.04 0.04 0.02 0.00 0.00 0.01 0.02 0.03 0.03 0.04 0.05 0.05 0.04 0.02 0.03 0.04 0.05 0.05 0.02 0.01 0.00 0.01 0.02 0.03 0.05 0.07 0.08 0.11 0.14
0.00 0.00 0.00 0.00 0.00 0.00 0.01 0.02 0.02 0.03 0.03 0.02 0.03 0.04 0.05 0.05 0.03 0.00 0.00 0.01 0.02 0.03 0.04 0.05 0.04 0.02 0.02 0.01 0.03 0.04 0.05 0.05 0.06 0.06 0.04 0.01 0.01 0.01 0.02 0.03 0.06 0.09 0.12
0.00 0.00 0.00 0.00 0.00 0.00 0.01 0.02 0.02 0.02 0.03 0.03 0.03 0.04 0.05 0.05 0.04 0.01 0.00 0.01 0.02 0.03 0.03 0.05 0.07 0.03 0.01 0.01 0.01 0.03 0.04 0.04 0.07 0.09 0.10 0.09 0.06 0.04 0.03 0.02 0.03 0.05 0.08
0.00 0.00 0.00 0.00 0.00 0.00 0.01 0.02 0.02 0.02 0.03 0.03 0.03 0.03 0.05 0.06 0.04 0.02 0.00 0.00 0.01 0.01 0.03 0.05 0.06 0.01 0.00 0.00 0.00 0.01 0.01 0.01 0.03 0.06 0.08 0.09 0.09 0.06 0.04 0.04 0.04 0.06 0.06
0.00 0.00 0.00 0.00 0.01 0.01 0.01 0.01 0.01 0.02 0.02 0.02 0.02 0.02 0.04 0.05 0.06 0.02 0.01 0.00 0.00 0.00 0.02 0.02 0.02 0.00 0.00 0.01 0.01 0.00 0.01 0.01 0.03 0.05 0.06 0.07 0.09 0.09 0.09 0.09 0.08 0.08 0.08
0.00 0.00 0.00 0.00 0.01 0.01 0.02 0.01 0.01 0.01 0.01 0.01 0.01 0.02 0.03 0.04 0.06 0.06 0.04 0.02 0.01 0.02 0.02 0.02 0.01 0.01 0.01 0.02 0.02 0.01 0.02 0.03 0.04 0.06 0.07 0.09 0.10 0.11 0.12 0.11 0.10 0.10 0.09
0.00 0.00 0.00 0.00 0.01 0.01 0.01 0.01 0.01 0.01 0.01 0.01 0.01 0.01 0.02 0.03 0.04 0.03 0.02 0.03 0.02 0.02 0.02 0.03 0.04 0.06 0.07 0.07 0.08 0.08 0.08 0.08 0.07 0.08 0.10 0.11 0.11 0.10 0.12 0.12 0.12 0.13 0.10
0.01 0.00 0.00 0.00 0.00 0.00 0.01 0.01 0.01 0.00 0.00 0.00 0.00 0.00 0.01 0.01 0.01 0.01 0.00 0.00 0.00 0.00 0.01 0.03 0.05 0.08 0.09 0.10 0.11 0.11 0.12 0.12 0.12 0.11 0.11 0.10 0.10 0.10 0.10 0.12 0.13 0.14 0.12
0.01 0.01 0.00 0.00 0.00 0.00 0.00 0.01 0.01 0.01 0.01 0.01 0.00 0.00 0.00 0.00 0.00 0.00 0.00 0.00 0.00 0.00 0.01 0.05 0.08 0.10 0.11 0.12 0.13 0.12 0.12 0.13 0.13 0.14 0.13 0.11 0.11 0.11 0.10 0.11 0.12 0.13 0.12
0.00 0.00 0.00 0.00 0.00 0.00 0.00 0.01 0.01 0.01 0.02 0.03 0.02 0.01 0.00 0.00 0.00 0.00 0.00 0.00 0.03 0.06 0.07 0.09 0.11 0.12 0.13 0.13 0.14 0.14 0.13 0.13 0.14 0.14 0.14 0.14 0.13 0.12 0.11 0.10 0.11 0.12 0.11
0.00 0.00 0.00 0.00 0.00 0.00 0.01 0.01 0.01 0.01 0.02 0.02 0.03 0.03 0.01 0.00 0.01 0.01 0.01 0.03 0.07 0.11 0.11 0.12 0.12 0.13 0.13 0.13 0.14 0.14 0.14 0.14 0.15 0.15 0.15 0.16 0.15 0.13 0.13 0.14 0.12 0.11 0.12
0.00 0.00 0.00 0.00 0.00 0.01 0.01 0.01 0.01 0.01 0.02 0.02 0.03 0.04 0.03 0.02 0.05 0.06 0.05 0.06 0.09 0.10 0.10 0.10 0.09 0.09 0.11 0.11 0.12 0.13 0.14 0.14 0.14 0.15 0.16 0.16 0.16 0.15 0.13 0.14 0.14 0.12 0.11
0.00 0.00 0.01 0.01 0.01 0.01 0.01 0.00 0.01 0.02 0.02 0.02 0.03 0.03 0.02 0.02 0.04 0.06 0.06 0.06 0.06 0.07 0.08 0.08 0.10 0.09 0.09 0.10 0.10 0.11 0.12 0.14 0.13 0.13 0.16 0.15 0.15 0.15 0.13 0.12 0.12 0.12 0.11
0.01 0.00 0.00 0.01 0.01 0.01 0.00 0.00 0.01 0.02 0.02 0.02 0.03 0.04 0.03 0.03 0.04 0.04 0.04 0.04 0.05 0.05 0.05 0.06 0.07 0.08 0.09 0.08 0.09 0.11 0.13 0.13 0.13 0.12 0.13 0.15 0.14 0.13 0.13 0.12 0.11 0.11 0.12
0.01 0.01 0.01 0.01 0.01 0.01 0.01 0.01 0.02 0.03 0.03 0.03 0.04 0.04 0.05 0.05 0.04 0.02 0.02 0.03 0.04 0.05 0.04 0.05 0.06 0.07 0.07 0.08 0.10 0.11 0.12 0.11 0.11 0.12 0.14 0.15 0.14 0.12 0.12 0.12 0.10 0.11 0.11
0.01 0.01 0.01 0.01 0.01 0.01 0.02 0.03 0.04 0.04 0.04 0.04 0.04 0.05 0.05 0.05 0.04 0.02 0.02 0.03 0.04 0.05 0.05 0.06 0.05 0.05 0.06 0.07 0.07 0.07 0.06 0.05 0.06 0.09 0.11 0.13 0.13 0.12 0.12 0.10 0.09 0.09 0.10
0.00 0.00 0.00 0.01 0.01 0.01 0.02 0.03 0.04 0.04 0.04 0.04 0.03 0.03 0.03 0.03 0.04 0.04 0.03 0.03 0.04 0.05 0.06 0.07 0.07 0.06 0.07 0.06 0.05 0.04 0.02 0.02 0.02 0.03 0.07 0.10 0.11 0.13 0.13 0.12 0.11 0.10 0.12
0.00 0.00 0.00 0.00 0.00 0.01 0.02 0.03 0.03 0.03 0.04 0.04 0.03 0.02 0.03 0.03 0.04 0.04 0.03 0.03 0.02 0.03 0.05 0.06 0.07 0.07 0.05 0.03 0.02 0.01 0.00 0.00 0.01 0.02 0.03 0.06 0.08 0.12 0.14 0.14 0.13 0.13 0.14
MSLP
1014.99 1015.25 1015.50 1015.72 1015.86 1015.90 1015.84 1015.71 1015.52 1015.31 1015.10 1014.92 1014.77 1014.65 1014.54 1014.43 1014.31 1014.18 1014.03 1013.88 1013.75 1013.64 1013.56 1013.52 1013.50 1013.50 1013.50 1013.48 1013.44 1013.37 1013.26 1013.13 1012.97 1012.79 1012.60 1012.40 1012.19 1011.97 1011.76 1011.55 1011.37 1011.23 1011.15
1014.91 1015.11 1015.32 1015.50 1015.62 1015.67 1015.64 1015.53 1015.38 1015.19 1015.00 1014.83 1014.67 1014.53 1014.40 1014.27 1014.14 1013.99 1013.83 1013.66 1013.50 1013.35 1013.22 1013.11 1013.03 1012.96 1012.91 1012.87 1012.82 1012.77 1012.71 1012.64 1012.55 1012.44 1012.31 1012.15 1011.95 1011.72 1011.47 1011.22 1010.96 1010.74 1010.58
1014.88 1015.03 1015.18 1015.31 1015.40 1015.43 1015.39 1015.30 1015.17 1015.01 1014.84 1014.68 1014.53 1014.40 1014.27 1014.15 1014.01 1013.86 1013.69 1013.51 1013.31 1013.12 1012.93 1012.76 1012.60 1012.47 1012.36 1012.27 1012.21 1012.16 1012.13 1012.10 1012.07 1012.01 1011.93 1011.80 1011.63 1011.41 1011.14 1010.86 1010.57 1010.30 1010.10
1014.88 1014.98 1015.07 1015.14 1015.17 1015.16 1015.10 1015.01 1014.88 1014.74 1014.60 1014.47 1014.35 1014.24 1014.13 1014.02 1013.89 1013.74 1013.57 1013.37 1013.15 1012.92 1012.68 1012.45 1012.23 1012.03 1011.86 1011.73 1011.64 1011.59 1011.57 1011.56 1011.56 1011.55 1011.50 1011.40 1011.25 1011.04 1010.78 1010.49 1010.20 1009.92 1009.70
1014.85 1014.92 1014.96 1014.96 1014.93 1014.86 1014.77 1014.65 1014.52 1014.39 1014.28 1014.17 1014.09 1014.01 1013.93 1013.84 1013.73 1013.59 1013.41 1013.20 1012.96 1012.70 1012.42 1012.14 1011.87 1011.62 1011.41 1011.25 1011.14 1011.07 1011.05 1011.06 1011.07 1011.08 1011.05 1010.98 1010.85 1010.66 1010.42 1010.15 1009.87 1009.61 1009.41
1014.78 1014.82 1014.81 1014.76 1014.66 1014.53 1014.39 1014.24 1014.10 1013.97 1013.87 1013.80 1013.74 1013.69 1013.64 1013.57 1013.48 1013.35 1013.17 1012.95 1012.70 1012.41 1012.10 1011.79 1011.49 1011.22 1010.99 1010.81 1010.68 1010.61 1010.59 1010.59 1010.61 1010.63 1010.61 1010.55 1010.44 1010.27 1010.07 1009.83 1009.59 1009.38 1009.21
1014.63 1014.66 1014.63 1014.52 1014.37 1014.19 1014.00 1013.81 1013.65 1013.52 1013.42 1013.37 1013.33 1013.30 1013.27 1013.22 1013.13 1013.00 1012.82 1012.60 1012.33 1012.03 1011.71 1011.39 1011.09 1010.81 1010.57 1010.39 1010.26 1010.19 1010.16 1010.16 1010.18 1010.19 1010.18 1010.13 1010.04 1009.90 1009.73 1009.54 1009.36 1009.20 1009.09
1014.43 1014.47 1014.41 1014.28 1014.08 1013.86 1013.62 1013.40 1013.21 1013.07 1012.97 1012.91 1012.89 1012.87 1012.85 1012.80 1012.71 1012.58 1012.39 1012.16 1011.88 1011.58 1011.26 1010.95 1010.65 1010.38 1010.15 1009.98 1009.86 1009.79 1009.75 1009.75 1009.76 1009.76 1009.75 1009.71 1009.64 1009.53 1009.41 1009.27 1009.15 1009.06 1009.01
1014.20 1014.24 1014.19 1014.04 1013.82 1013.56 1013.29 1013.03 1012.82 1012.66 1012.55 1012.49 1012.46 1012.44 1012.41 1012.36 1012.27 1012.13 1011.93 1011.69 1011.42 1011.11 1010.80 1010.50 1010.21 1009.95 1009.74 1009.58 1009.46 1009.38 1009.34 1009.33 1009.32 1009.32 1009.30 1009.27 1009.22 1009.15 1009.08 1009.00 1008.95 1008.93 1008.94
1013.97 1014.02 1013.97 1013.81 1013.58 1013.30 1013.00 1012.73 1012.49 1012.31 1012.18 1012.11 1012.07 1012.05 1012.02 1011.96 1011.86 1011.71 1011.51 1011.27 1010.99 1010.69 1010.38 1010.08 1009.81 1009.56 1009.35 1009.19 1009.06 1008.97 1008.91 1008.88 1008.85 1008.84 1008.82 1008.80 1008.77 1008.74 1008.72 1008.72 1008.73 1008.78 1008.86
1013.73 1013.80 1013.75 1013.59 1013.35 1013.06 1012.75 1012.46 1012.20 1012.01 1011.87 1011.78 1011.74 1011.71 1011.68 1011.62 1011.52 1011.38 1011.18 1010.94 1010.66 1010.37 1010.06 1009.76 1009.48 1009.23 1009.00 1008.82 1008.67 1008.55 1008.46 1008.39 1008.34 1008.31 1008.28 1008.27 1008.28 1008.30 1008.33 1008.39 1008.48 1008.60 1008.75
1013.49 1013.55 1013.50 1013.34 1013.10 1012.80 1012.49 1012.19 1011.92 1011.72 1011.57 1011.48 1011.44 1011.42 1011.39 1011.35 1011.27 1011.14 1010.96 1010.73 1010.46 1010.16 1009.85 1009.54 1009.25 1008.96 1008.71 1008.48 1008.28 1008.11 1007.98 1007.86 1007.78 1007.73 1007.70 1007.71 1007.74 1007.80 1007.90 1008.03 1008.19 1008.37 1008.58
1013.21 1013.26 1013.20 1013.03 1012.79 1012.49 1012.17 1011.87 1011.60 1011.40 1011.25 1011.18 1011.14 1011.14 1011.14 1011.12 1011.07 1010.97 1010.82 1010.61 1010.35 1010.06 1009.75 1009.42 1009.09 1008.76 1008.46 1008.17 1007.91 1007.68 1007.48 1007.32 1007.20 1007.12 1007.09 1007.11 1007.17 1007.29 1007.44 1007.63 1007.86 1008.11 1008.37
1012.87 1012.89 1012.81 1012.63 1012.38 1012.08 1011.76 1011.46 1011.21 1011.01 1010.88 1010.82 1010.81 1010.84 1010.88 1010.90 1010.89 1010.83 1010.71 1010.53 1010.30 1010.01 1009.69 1009.34 1008.97 1008.60 1008.23 1007.88 1007.55 1007.26 1007.00 1006.78 1006.62 1006.52 1006.49 1006.52 1006.61 1006.77 1006.97 1007.22 1007.50 1007.81 1008.12
1012.42 1012.41 1012.31 1012.13 1011.87 1011.57 1011.26 1010.97 1010.73 1010.55 1010.44 1010.40 1010.43 1010.49 1010.57 1010.64 1010.67 1010.66 1010.58 1010.43 1010.21 1009.93 1009.60 1009.23 1008.84 1008.42 1008.01 1007.60 1007.21 1006.86 1006.54 1006.29 1006.09 1005.98 1005.93 1005.97 1006.09 1006.27 1006.52 1006.81 1007.14 1007.48 1007.83
1011.89 1011.85 1011.73 1011.54 1011.28 1010.99 1010.69 1010.41 1010.19 1010.03 1009.94 1009.93 1009.99 1010.08 1010.19 1010.30 1010.37 1010.38 1010.34 1010.22 1010.02 1009.75 1009.43 1009.05 1008.63 1008.20 1007.75 1007.31 1006.88 1006.49 1006.15 1005.86 1005.65 1005.52 1005.47 1005.51 1005.64 1005.84 1006.10 1006.42 1006.77 1007.14 1007.51
1011.29 1011.23 1011.10 1010.91 1010.66 1010.38 1010.10 1009.84 1009.64 1009.50 1009.43 1009.44 1009.51 1009.62 1009.75 1009.87 1009.95 1009.99 1009.96 1009.85 1009.67 1009.42 1009.10 1008.73 1008.32 1007.89 1007.44 1007.00 1006.57 1006.18 1005.83 1005.53 1005.31 1005.17 1005.12 1005.15 1005.27 1005.46 1005.73 1006.04 1006.40 1006.78 1007.16
1010.65 1010.59 1010.47 1010.28 1010.05 1009.79 1009.54 1009.31 1009.12 1009.00 1008.95 1008.96 1009.03 1009.13 1009.25 1009.36 1009.43 1009.46 1009.43 1009.33 1009.15 1008.91 1008.62 1008.27 1007.89 1007.49 1007.08 1006.67 1006.28 1005.91 1005.58 1005.30 1005.08 1004.94 1004.87 1004.89 1004.98 1005.15 1005.39 1005.68 1006.02 1006.38 1006.77
1010.01 1009.96 1009.85 1009.68 1009.48 1009.26 1009.04 1008.84 1008.67 1008.56 1008.51 1008.51 1008.56 1008.63 1008.71 1008.78 1008.82 1008.82 1008.76 1008.65 1008.47 1008.25 1007.98 1007.68 1007.36 1007.02 1006.67 1006.33 1006.00 1005.69 1005.40 1005.15 1004.95 1004.80 1004.72 1004.70 1004.76 1004.88 1005.07 1005.32 1005.62 1005.95 1006.32
1009.36 1009.33 1009.25 1009.12 1008.96 1008.77 1008.59 1008.41 1008.27 1008.17 1008.11 1008.09 1008.10 1008.13 1008.15 1008.16 1008.14 1008.09 1008.00 1007.86 1007.68 1007.47 1007.24 1007.00 1006.74 1006.49 1006.23 1005.98 1005.73 1005.49 1005.27 1005.06 1004.88 1004.73 1004.62 1004.56 1004.57 1004.63 1004.75 1004.94 1005.19 1005.48 1005.82
1008.72 1008.71 1008.66 1008.56 1008.43 1008.29 1008.14 1008.00 1007.87 1007.78 1007.71 1007.66 1007.63 1007.60 1007.56 1007.51 1007.43 1007.32 1007.18 1007.02 1006.84 1006.65 1006.46 1006.27 1006.10 1005.93 1005.77 1005.62 1005.47 1005.31 1005.15 1004.98 1004.82 1004.66 1004.53 1004.43 1004.37 1004.37 1004.42 1004.54 1004.72 1004.97 1005.28
1008.07 1008.06 1008.02 1007.95 1007.85 1007.74 1007.62 1007.51 1007.41 1007.32 1007.25 1007.18 1007.11 1007.04 1006.94 1006.83 1006.70 1006.54 1006.37 1006.18 1006.01 1005.84 1005.70 1005.57 1005.48 1005.40 1005.33 1005.27 1005.21 1005.12 1005.02 1004.89 1004.74 1004.58 1004.42 1004.27 1004.16 1004.08 1004.07 1004.12 1004.25 1004.45 1004.72
1007.37 1007.36 1007.31 1007.25 1007.16 1007.07 1006.98 1006.89 1006.81 1006.74 1006.67 1006.59 1006.51 1006.41 1006.29 1006.15 1005.98 1005.80 1005.61 1005.42 1005.26 1005.12 1005.02 1004.95 1004.92 1004.92 1004.93 1004.95 1004.95 1004.92 1004.86 1004.75 1004.61 1004.44 1004.26 1004.07 1003.91 1003.78 1003.71 1003.71 1003.78 1003.94 1004.18
1006.64 1006.58 1006.51 1006.43 1006.34 1006.25 1006.17 1006.11 1006.05 1006.00 1005.95 1005.89 1005.82 1005.73 1005.62 1005.47 1005.31 1005.13 1004.95 1004.79 1004.65 1004.54 1004.48 1004.46 1004.48 1004.53 1004.59 1004.65 1004.69 1004.70 1004.66 1004.57 1004.43 1004.25 1004.04 1003.83 1003.63 1003.47 1003.36 1003.32 1003.36 1003.48 1003.68
1005.88 1005.76 1005.64 1005.52 1005.40 1005.31 1005.23 1005.18 1005.15 1005.13 1005.12 1005.11 1005.08 1005.03 1004.95 1004.85 1004.73 1004.59 1004.45 1004.32 1004.21 1004.14 1004.11 1004.12 1004.17 1004.25 1004.33 1004.41 1004.46 1004.47 1004.43 1004.34 1004.19 1004.00 1003.79 1003.56 1003.35 1003.17 1003.04 1002.98 1002.99 1003.09 1003.27
1005.14 1004.94 1004.75 1004.58 1004.43 1004.31 1004.23 1004.20 1004.19 1004.22 1004.26 1004.31 1004.35 1004.37 1004.36 1004.33 1004.28 1004.20 1004.12 1004.04 1003.98 1003.94 1003.94 1003.96 1004.02 1004.09 1004.16 1004.22 1004.25 1004.25 1004.19 1004.08 1003.92 1003.72 1003.50 1003.27 1003.06 1002.88 1002.76 1002.69 1002.70 1002.78 1002.93
Thickness
5699 5694 5689 5685 5680 5676 5671 5667 5663 5658 5653 5649 5645 5641 5638 5634 5632 5629 5627 5625 5624 5622 5622 5622 5622 5623 5624 5626 5629 5632 5635 5637 5638 5646 5654 5661 5666 5671 5676 5682 5686 5690 5693
5699 5693 5688 5683 5677 5672 5667 5663 5658 5653 5648 5644 5640 5635 5631 5628 5625 5622 5619 5617 5615 5613 5613 5612 5612 5614 5615 5616 5618 5621 5624 5629 5631 5634 5642 5649 5655 5662 5667 5673 5678 5682 5687
5697 5691 5685 5679 5673 5667 5663 5658 5653 5648 5643 5639 5634 5629 5625 5621 5618 5615 5612 5609 5607 5605 5604 5604 5604 5604 5605 5606 5608 5611 5615 5620 5624 5627 5633 5639 5646 5653 5658 5663 5669 5674 5680
5694 5687 5681 5675 5670 5665 5660 5655 5649 5644 5639 5634 5629 5624 5620 5616 5612 5609 5605 5602 5599 5598 5597 5596 5596 5597 5597 5598 5600 5603 5606 5610 5614 5618 5623 5629 5635 5643 5647 5652 5657 5664 5671
5690 5684 5679 5674 5668 5662 5657 5651 5646 5640 5635 5630 5624 5620 5615 5611 5608 5603 5598 5595 5592 5590 5589 5588 5589 5590 5591 5592 5594 5596 5598 5600 5604 5608 5613 5619 5625 5631 5636 5643 5647 5655 5662
5688 5682 5677 5671 5666 5660 5654 5649 5643 5637 5631 5625 5620 5615 5610 5607 5601 5595 5590 5587 5585 5583 5582 5582 5582 5584 5585 5586 5587 5589 5591 5592 5595 5599 5604 5609 5615 5622 5628 5634 5638 5644 5650
5687 5681 5676 5670 5663 5657 5652 5645 5639 5632 5627 5621 5616 5611 5606 5601 5595 5589 5584 5580 5578 5577 5576 5575 5576 5580 5580 5581 5582 5583 5585 5586 5588 5591 5595 5601 5606 5613 5618 5623 5629 5634 5641
5685 5679 5673 5667 5660 5654 5647 5641 5635 5628 5622 5616 5611 5606 5602 5597 5592 5586 5580 5575 5574 5573 5572 5572 5571 5572 5573 5573 5574 5576 5578 5581 5584 5585 5590 5595 5600 5605 5610 5615 5620 5627 5635
5683 5677 5671 5664 5657 5650 5643 5637 5631 5625 5618 5613 5608 5603 5598 5594 5588 5582 5575 5572 5570 5570 5570 5570 5568 5568 5567 5566 5566 5568 5571 5574 5578 5582 5586 5590 5593 5598 5602 5606 5611 5615 5622
5680 5675 5668 5661 5653 5646 5640 5634 5628 5622 5615 5610 5606 5601 5596 5592 5586 5578 5571 5568 5567 5566 5566 5565 5564 5563 5561 5560 5559 5561 5562 5565 5569 5573 5577 5581 5585 5590 5594 5599 5604 5608 5614
5678 5672 5665 5658 5651 5645 5639 5633 5626 5619 5614 5608 5603 5599 5595 5591 5584 5576 5569 5565 5562 5561 5560 5560 5559 5556 5554 5552 5551 5553 5555 5556 5559 5563 5568 5573 5578 5583 5588 5593 5599 5603 5608
5674 5668 5661 5655 5649 5645 5637 5631 5624 5617 5611 5606 5602 5598 5594 5589 5583 5575 5568 5561 5557 5555 5554 5554 5553 5549 5546 5545 5544 5546 5546 5547 5551 5556 5561 5567 5572 5577 5583 5588 5594 5599 5604
5669 5663 5658 5652 5647 5641 5635 5628 5622 5617 5610 5605 5601 5595 5591 5586 5580 5573 5565 5559 5554 5550 5551 5549 5545 5542 5540 5540 5539 5539 5538 5541 5545 5550 5556 5562 5567 5572 5577 5582 5586 5591 5597
5665 5659 5655 5650 5645 5640 5634 5627 5620 5614 5608 5602 5595 5590 5586 5581 5575 5568 5562 5557 5552 5549 5547 5545 5543 5541 5539 5538 5537 5537 5536 5539 5543 5546 5551 5557 5562 5566 5570 5574 5578 5582 5587
5661 5656 5651 5648 5644 5638 5632 5625 5619 5613 5606 5597 5592 5586 5581 5576 5569 5559 5554 5553 5549 5545 5539 5540 5541 5542 5542 5541 5539 5539 5539 5539 5540 5543 5546 5550 5554 5559 5564 5568 5572 5576 5580
5655 5651 5648 5644 5640 5635 5629 5625 5620 5612 5605 5597 5589 5582 5578 5572 5565 5559 5553 5548 5543 5538 5534 5539 5541 5541 5541 5541 5540 5539 5539 5539 5540 5541 5544 5547 5550 5554 5558 5563 5566 5570 5575
5651 5646 5643 5639 5635 5631 5626 5620 5615 5610 5603 5596 5589 5581 5574 5569 5564 5558 5553 5548 5544 5538 5536 5541 5542 5542 5542 5541 5540 5539 5539 5539 5539 5540 5542 5545 5548 5551 5554 5558 5562 5565 5570
5649 5645 5640 5635 5631 5627 5623 5617 5612 5607 5601 5597 5590 5582 5575 5568 5563 5558 5552 5546 5549 5547 5545 5545 5545 5544 5543 5542 5541 5539 5538 5538 5538 5539 5541 5544 5546 5548 5551 5554 5558 5562 5566
5647 5642 5638 5633 5628 5624 5619 5614 5609 5603 5598 5594 5591 5585 5576 5569 5563 5558 5552 5550 5552 5552 5551 5549 5547 5545 5544 5542 5541 5539 5538 5538 5538 5538 5540 5543 5545 5547 5549 5552 5556 5558 5562
5643 5638 5632 5627 5623 5618 5614 5610 5605 5600 5595 5591 5587 5583 5577 5571 5568 5564 5557 5555 5554 5553 5551 5550 5548 5546 5545 5543 5541 5540 5539 5538 5538 5539 5540 5542 5544 5546 5547 5550 5553 5556 5559
5639 5635 5627 5622 5617 5613 5610 5605 5601 5596 5592 5588 5584 5580 5572 5569 5567 5564 5561 5558 5555 5554 5551 5549 5547 5546 5545 5543 5542 5541 5540 5539 5539 5540 5540 5541 5543 5544 5546 5548 5551 5553 5557
5632 5629 5624 5619 5615 5610 5605 5601 5597 5592 5589 5585 5582 5578 5571 5567 5565 5563 5560 5557 5555 5553 5552 5550 5547 5546 5544 5543 5542 5541 5540 5540 5540 5540 5540 5541 5542 5544 5545 5547 5549 5551 5554
5625 5621 5618 5614 5610 5605 5600 5597 5593 5588 5585 5582 5578 5574 5570 5566 5563 5561 5558 5556 5554 5552 5551 5549 5546 5545 5544 5542 5541 5540 5539 5539 5538 5539 5539 5540 5542 5543 5545 5547 5549 5551 5553
5619 5615 5611 5607 5604 5601 5596 5592 5588 5585 5581 5577 5573 5570 5567 5564 5561 5558 5556 5554 5552 5551 5549 5547 5545 5544 5543 5542 5540 5538 5536 5535 5535 5537 5538 5539 5540 5542 5544 5546 5549 5551 5553
5611 5608 5604 5601 5597 5594 5589 5586 5582 5579 5575 5572 5569 5565 5563 5561 5558 5556 5553 5551 5550 5549 5547 5546 5544 5543 5541 5540 5538 5534 5531 5531 5531 5532 5535 5538 5541 5542 5544 5547 5548 5551 5552
5601 5599 5596 5593 5589 5586 5582 5578 5575 5572 5569 5566 5564 5561 5558 5556 5554 5552 5550 5549 5547 5546 5545 5544 5542 5541 5539 5537 5534 5531 5529 5528 5528 5529 5532 5536 5539 5542 5544 5546 5548 5550 5552